Location: Palomar Mountain Lodge
(33.3110°N, 116.8495°W)
Time: 03:25:56
(UTC-07:00)

Cosmos 1707 - Pass Details

Date: 14 June 2018
Orbit: 516 x 533 km, 82.5° (Epoch: 20 June)

Event Time Altitude Azimuth Distance (km) Brightness Sun altitude
Exits shadow 21:39:13 26° 188° (S) 1,056 3.9 -17.7°
Maximum altitude 21:41:19 86° 277° (W) 529 2.6 -18.0°
Drops below altitude 10° 21:45:11 10° 5° (N) 1,761 5.9 -18.6°
Sets 21:47:20 0° 6° (N) 2,650 6.9 -18.9°
